Regional Weather Roundup
Issued by NWS

Home | Current Version | Previous Version | Graphics & Text | Print | Product List | Glossary On
Versions: 1 2 3 4 5 6 7 8 9 10 11 12 13 14 15 16 17 18 19 20 21 22 23 24 25 26 27 28 29 30 31 32 33 34 35 36 37 38 39 40 41 42 43 44 45 46 47 48 49 50
000
ASUS43 KFSD 010310
RWRSD

WEATHER ROUNDUP FOR SOUTH DAKOTA
NATIONAL WEATHER SERVICE SIOUX FALLS SD
1000 PM CDT THU JUL 31 2014

NOTE: "FAIR" INDICATES FEW OR NO CLOUDS BELOW 12,000 FEET WITH NO
SIGNIFICANT WEATHER AND/OR OBSTRUCTIONS TO VISIBILITY.


SDZ001>005-009-010-012>017-010400-
NORTHWEST AND NORTH CENTRAL SOUTH DAKOTA

CITY           SKY/WX    TMP DP  RH WIND       PRES   REMARKS
BUFFALO          N/A     72  49  44 SE7       30.01R
FAITH            N/A     73  55  53 SE10      30.06R
MOBRIDGE       CLEAR     70  54  56 E7        30.01S
$$

SDZ012>016-024>037-041>051-057-063-072>074-010400-
SOUTHWEST AND SOUTH CENTRAL SOUTH DAKOTA

CITY           SKY/WX    TMP DP  RH WIND       PRES   REMARKS
RAPID CTY ARPT MOCLDY    74  50  42 N20G26    30.14R
PIERRE         CLEAR     72  59  63 SE7       30.03R
CUSTER         PTCLDY    61  56  83 NW5       30.27R
ELLSWORTH AFB  LGT RAIN  77  48  36 SE18G41   30.11F
PHILIP         PTCLDY    74  51  44 CALM      30.05R
PINE RIDGE     PTCLDY    65  56  72 E6        30.12S
WINNER         FAIR      71  56  58 SE7       30.05R
$$

SDZ004>011-016>023-039-040-010400-
NORTHEAST SOUTH DAKOTA

CITY           SKY/WX    TMP DP  RH WIND       PRES   REMARKS
ABERDEEN       CLEAR     63  59  87 E3        30.04R
WATERTOWN      CLEAR     67  55  65 N3        30.06R
SISSETON         N/A     66  63  90 W3        30.02R
$$

SDZ017-020-022-023-036>040-048>070-010400-
SOUTHEAST SOUTH DAKOTA

CITY           SKY/WX    TMP DP  RH WIND       PRES   REMARKS
SIOUX FALLS    CLEAR     63  60  90 CALM      30.05R
HURON          CLEAR     69  58  67 E3        30.04R
CHAMBERLAIN    CLEAR     69  57  65 E5        30.05R
MITCHELL       CLEAR     68  62  81 E7        30.04R
YANKTON        CLEAR     64  61  88 CALM      30.05R
$$

ABBREVIATIONS USED IN REMARKS
   TC - TEMPERATURE IN CELSIUS
  WCI - WIND CHILL INDEX
   HX - HEAT INDEX
  VSB - VISIBILITY



USA.gov is the U.S. government's official web portal to all federal, state and local government web resources and services.